Home > Weather > Maputo > Past weeks

Flag for Mozambique Past Weather in Maputo, Mozambique — Yesterday and Last 2 Weeks

Now
64 °F

Broken clouds.


Feels Like: 64 °F
Forecast: 63 / 71 °F
Wind: 2 mph from North

Location: Maputo / Mavalane

Current Time: Jul 26, 2016 at 8:32:50 AM

Latest Report: Jul 26, 2016 at 8:00 AM


Visibility: N/A

Pressure: 30.09 "Hg

Humidity: 94%

Dew Point: 63 °F

Location of MaputoLocation

Past Weather in Maputo — Graph

°F

Maputo Temperature Yesterday

Maximum temperature yesterday: 73 °F (at 12:00 PM)
Minimum temperature yesterday: 61 °F (at 7:00 AM)
Average temperature yesterday: 69 °F

High & Low Weather Summary for the Past Weeks

 TemperatureHumidityPressure
High90 °F (Jul 21, 2:00 PM)100% (Jul 12, 8:00 AM)30.48 "Hg (Jul 12, 8:00 AM)
Low54 °F (Jul 12, 4:00 AM)12% (Jul 21, 4:00 PM)29.86 "Hg (Jul 22, 5:00 PM)
Average68 °F70%30.20 "Hg
* Reported Jul 11 7:00 AM — Jul 26 7:00 AM, Maputo, Weather by CustomWeather, © 2016

Note: Actual official high and low records may vary slightly from our data, if they occured in-between our weather recording intervals... More about our weather records

Advertising

Maputo Weather History for the Previous 24 Hours

Scroll right to see more
 ConditionsComfort  
Time TempWeatherWind HumidityBarometerVisibility
7:00 AM
Tue, Jul 26
66 °FMore clouds than sun.3 mph94%30.09 "HgN/A
6:00 AM64 °FPartly sunny.6 mph94%30.07 "HgN/A
5:00 AM64 °FPassing clouds.5 mph94%30.09 "HgN/A
1:00 AM64 °FPassing clouds.5 mph88%30.12 "HgN/A
12:00 AM66 °FPassing clouds.5 mph88%30.15 "HgN/A
11:00 PM
Mon, Jul 25
66 °FPassing clouds.1 mph88%30.15 "HgN/A
10:00 PM66 °FPassing clouds.2 mph94%30.15 "HgN/A
9:00 PM68 °FPassing clouds.2 mph88%30.15 "HgN/A
8:00 PM68 °FPassing clouds.3 mph88%30.15 "HgN/A
7:00 PM68 °FPassing clouds.6 mph88%30.15 "HgN/A
6:00 PM68 °FPassing clouds.7 mph88%30.15 "HgN/A
5:00 PM70 °FPassing clouds.8 mph78%30.12 "HgN/A
4:00 PM73 °FScattered clouds.10 mph69%30.12 "HgN/A
3:00 PM73 °FScattered clouds.7 mph65%30.15 "HgN/A
2:00 PM73 °FPartly sunny.7 mph61%30.15 "HgN/A
12:00 PM73 °FScattered clouds.9 mph57%30.18 "HgN/A
11:00 AM70 °FPartly sunny.10 mph64%30.24 "HgN/A
10:00 AM68 °FScattered clouds.12 mph64%30.24 "HgN/A
9:00 AM64 °FPartly sunny.12 mph73%30.27 "HgN/A
Weather by CustomWeather, © 2016

See weather overviewHow to use our weather pages